Overview Statistics Trail Chart Weather Telemetry Raw packets
 

This is the latest recevied weather packets stored in our database for station/object KO4ZGL-13. If no packets are shown the sender has not sent any weather packets the latest 10 day(s).

<< 62 63 64 65 66 67 68 >>
Time Temp. Humidity Pressure Rain* Wind** Luminosity Snow
1788211548 32.78° C 77% 1018 hPa 0 mm - 336 W/m² -
1788211244 32.78° C 72% 1018.2 hPa 0 mm - 361 W/m² -
1788210937 33.33° C 74% 1017.9 hPa 0 mm - 350 W/m² -
1788210637 33.89° C 75% 1018.2 hPa 0 mm - 260 W/m² -
1788210332 32.78° C 72% 1018 hPa 0 mm - 285 W/m² -
1788210028 32.78° C 75% 1018 hPa 0 mm - 308 W/m² -
1788209722 32.22° C 77% 1018 hPa 0 mm - 360 W/m² -
1788209418 32.22° C 77% 1018.1 hPa 0 mm - 337 W/m² -
1788209119 32.78° C 76% 1017.8 hPa 0 mm - 322 W/m² -
1788208817 32.78° C 75% 1018.1 hPa 0 mm - 288 W/m² -
1788208523 32.78° C 75% 1018.2 hPa 0 mm - 237 W/m² -
1788208210 32.78° C 78% 1018.2 hPa 0 mm - 252 W/m² -
1788207904 32.78° C 77% 1017.9 hPa 0 mm - 322 W/m² -
1788207604 32.22° C 74% 1018 hPa 0 mm - 262 W/m² -
1788207303 32.22° C 72% 1018.1 hPa 0 mm - 294 W/m² -
1788206998 32.78° C 72% 1017.9 hPa 0 mm - 246 W/m² -
1788206694 32.22° C 73% 1018.2 hPa 0 mm - 373 W/m² -
1788206388 33.33° C 72% 1018.3 hPa 0 mm - 391 W/m² -
1788206084 32.78° C 74% 1018.5 hPa 0 mm - 180 W/m² -
1788205786 32.78° C 74% 1018.5 hPa 0 mm - 196 W/m² -
1788205475 32.78° C 72% 1018.4 hPa 0 mm - 661 W/m² -
1788205174 32.22° C 74% 1018.6 hPa 0 mm - 610 W/m² -
1788204869 33.33° C 72% 1018.5 hPa 0 mm - 402 W/m² -
1788204564 33.33° C 72% 1018.7 hPa 0 mm - 512 W/m² -
1788204259 32.22° C 71% 1018.8 hPa 0 mm - 521 W/m² -

* Rain latest hour (hover to see other rain measurements)
** Current wind speed in m/s (hover to see current wind gust speed)